Volver al catálogo

GLOBALSTAR M099

ActivoComunicacionesLEO
NORAD 100327·PAYLOAD·🇺🇸 United States

Lanzado Aug 16, 2026 desde Cape Canaveral Space Force Station

Loading…

Próximos Pases (próximas 24 horas)

TLE

ActualizadoSource: Space-Track

Época: Sep 14, 2026, 14:35 UTC

1 A0327U 26185C   26257.60778948  .00000201  00000-0  75117-4 0  9993
2 A0327  51.9950 110.9022 0009579 328.8020  31.2367 14.63800520  4332

Sigue GLOBALSTAR M099 en tiempo real con AllMySat

Download on the App Store